Year,Month,Day,Hour,Minute,Value (Times are PST for temperature in C)
2018,08,20,00,00,12.90
2018,08,20,00,01,12.90
2018,08,20,00,02,12.90
2018,08,20,00,03,12.80
2018,08,20,00,04,12.80
2018,08,20,00,05,12.80
2018,08,20,00,06,12.80
2018,08,20,00,07,12.80
2018,08,20,00,08,12.80
2018,08,20,00,09,12.80
2018,08,20,00,10,12.80
2018,08,20,00,11,12.80
2018,08,20,00,12,12.80
2018,08,20,00,13,12.80
2018,08,20,00,14,12.80
2018,08,20,00,15,12.80
2018,08,20,00,16,12.80
2018,08,20,00,17,12.80
2018,08,20,00,18,12.80
2018,08,20,00,19,12.80
2018,08,20,00,20,12.80
2018,08,20,00,21,12.80
2018,08,20,00,22,12.80
2018,08,20,00,23,12.80
2018,08,20,00,24,12.80
2018,08,20,00,25,12.80
2018,08,20,00,26,12.80
2018,08,20,00,27,12.80
2018,08,20,00,28,12.80
2018,08,20,00,29,12.80
2018,08,20,00,30,12.80
2018,08,20,00,31,12.80
2018,08,20,00,32,12.80
2018,08,20,00,33,12.80
2018,08,20,00,34,12.80
2018,08,20,00,35,12.80
2018,08,20,00,36,12.80
2018,08,20,00,37,12.80
2018,08,20,00,38,12.80
2018,08,20,00,39,12.80
2018,08,20,00,40,12.80
2018,08,20,00,41,12.80
2018,08,20,00,42,12.80
2018,08,20,00,43,12.80
2018,08,20,00,44,12.80
2018,08,20,00,45,12.70
2018,08,20,00,46,12.70
2018,08,20,00,47,12.70
2018,08,20,00,48,12.70
2018,08,20,00,49,12.70
2018,08,20,00,50,12.70
2018,08,20,00,51,12.70
2018,08,20,00,52,12.70
2018,08,20,00,53,12.70
2018,08,20,00,54,12.70
2018,08,20,00,55,12.70
2018,08,20,00,56,12.70
2018,08,20,00,57,12.70
2018,08,20,00,58,12.70
2018,08,20,00,59,12.70
2018,08,20,01,00,12.60
2018,08,20,01,01,12.60
2018,08,20,01,02,12.60
2018,08,20,01,03,12.60
2018,08,20,01,04,12.60
2018,08,20,01,05,12.60
2018,08,20,01,06,12.60
2018,08,20,01,07,12.60
2018,08,20,01,08,12.50
2018,08,20,01,09,12.50
2018,08,20,01,10,12.50
2018,08,20,01,11,12.50
2018,08,20,01,12,12.50
2018,08,20,01,13,12.50
2018,08,20,01,14,12.50
2018,08,20,01,15,12.40
2018,08,20,01,16,12.40
2018,08,20,01,17,12.40
2018,08,20,01,18,12.40
2018,08,20,01,19,12.40
2018,08,20,01,20,12.40
2018,08,20,01,21,12.40
2018,08,20,01,22,12.40
2018,08,20,01,23,12.40
2018,08,20,01,24,12.40
2018,08,20,01,25,12.40
2018,08,20,01,26,12.40
2018,08,20,01,27,12.40
2018,08,20,01,28,12.40
2018,08,20,01,29,12.40
2018,08,20,01,30,12.30
2018,08,20,01,31,12.30
2018,08,20,01,32,12.30
2018,08,20,01,33,12.30
2018,08,20,01,34,12.30
2018,08,20,01,35,12.30
2018,08,20,01,36,12.30
2018,08,20,01,37,12.30
2018,08,20,01,38,12.30
2018,08,20,01,39,12.30
2018,08,20,01,40,12.30
2018,08,20,01,41,12.30
2018,08,20,01,42,12.30
2018,08,20,01,43,12.30
2018,08,20,01,44,12.30
2018,08,20,01,45,12.20
2018,08,20,01,46,12.20
2018,08,20,01,47,12.20
2018,08,20,01,48,12.20
2018,08,20,01,49,12.20
2018,08,20,01,50,12.20
2018,08,20,01,51,12.20
2018,08,20,01,52,12.20
2018,08,20,01,53,12.20
2018,08,20,01,54,12.20
2018,08,20,01,55,12.10
2018,08,20,01,56,12.10
2018,08,20,01,57,12.10
2018,08,20,01,58,12.10
2018,08,20,01,59,12.10
2018,08,20,02,00,12.20
2018,08,20,02,01,12.20
2018,08,20,02,02,12.20
2018,08,20,02,03,12.20
2018,08,20,02,04,12.20
2018,08,20,02,05,12.20
2018,08,20,02,06,12.20
2018,08,20,02,07,12.20
2018,08,20,02,08,12.20
2018,08,20,02,09,12.20
2018,08,20,02,10,12.20
2018,08,20,02,11,12.20
2018,08,20,02,12,12.20
2018,08,20,02,13,12.20
2018,08,20,02,14,12.20
2018,08,20,02,15,12.30
2018,08,20,02,16,12.30
2018,08,20,02,17,12.30
2018,08,20,02,18,12.30
2018,08,20,02,19,12.30
2018,08,20,02,20,12.30
2018,08,20,02,21,12.40
2018,08,20,02,22,12.40
2018,08,20,02,23,12.40
2018,08,20,02,24,12.40
2018,08,20,02,25,12.40
2018,08,20,02,26,12.40
2018,08,20,02,27,12.50
2018,08,20,02,28,12.50
2018,08,20,02,29,12.50
2018,08,20,02,30,12.50
2018,08,20,02,31,12.50
2018,08,20,02,32,12.50
2018,08,20,02,33,12.50
2018,08,20,02,34,12.50
2018,08,20,02,35,12.50
2018,08,20,02,36,12.50
2018,08,20,02,37,12.50
2018,08,20,02,38,12.50
2018,08,20,02,39,12.50
2018,08,20,02,40,12.50
2018,08,20,02,41,12.50
2018,08,20,02,42,12.50
2018,08,20,02,43,12.50
2018,08,20,02,44,12.40
2018,08,20,02,45,12.40
2018,08,20,02,46,12.40
2018,08,20,02,47,12.40
2018,08,20,02,48,12.40
2018,08,20,02,49,12.40
2018,08,20,02,50,12.40
2018,08,20,02,51,12.40
2018,08,20,02,52,12.40
2018,08,20,02,53,12.40
2018,08,20,02,54,12.40
2018,08,20,02,55,12.30
2018,08,20,02,56,12.40
2018,08,20,02,57,12.30
2018,08,20,02,58,12.30
2018,08,20,02,59,12.30
2018,08,20,03,00,12.30
2018,08,20,03,01,12.30
2018,08,20,03,02,12.30
2018,08,20,03,03,12.30
2018,08,20,03,04,12.20
2018,08,20,03,05,12.20
2018,08,20,03,06,12.20
2018,08,20,03,07,12.20
2018,08,20,03,08,12.20
2018,08,20,03,09,12.20
2018,08,20,03,10,12.20
2018,08,20,03,11,12.20
2018,08,20,03,12,12.10
2018,08,20,03,13,12.20
2018,08,20,03,14,12.10
2018,08,20,03,15,12.10
2018,08,20,03,16,12.10
2018,08,20,03,17,12.10
2018,08,20,03,18,12.10
2018,08,20,03,19,12.10
2018,08,20,03,20,12.10
2018,08,20,03,21,12.00
2018,08,20,03,22,12.00
2018,08,20,03,23,12.00
2018,08,20,03,24,12.00
2018,08,20,03,25,12.00
2018,08,20,03,26,12.00
2018,08,20,03,27,12.00
2018,08,20,03,28,11.90
2018,08,20,03,29,11.90
2018,08,20,03,30,11.90
2018,08,20,03,31,11.90
2018,08,20,03,32,11.90
2018,08,20,03,33,11.90
2018,08,20,03,34,11.90
2018,08,20,03,35,11.90
2018,08,20,03,36,11.90
2018,08,20,03,37,11.90
2018,08,20,03,38,11.90
2018,08,20,03,39,11.90
2018,08,20,03,40,11.90
2018,08,20,03,41,11.90
2018,08,20,03,42,11.90
2018,08,20,03,43,11.90
2018,08,20,03,44,11.90
2018,08,20,03,45,11.90
2018,08,20,03,46,11.90
2018,08,20,03,47,11.90
2018,08,20,03,48,11.90
2018,08,20,03,49,11.90
2018,08,20,03,50,11.90
2018,08,20,03,51,11.90
2018,08,20,03,52,11.90
2018,08,20,03,53,11.90
2018,08,20,03,54,11.90
2018,08,20,03,55,11.90
2018,08,20,03,56,11.90
2018,08,20,03,57,11.90
2018,08,20,03,58,11.90
2018,08,20,03,59,11.90
2018,08,20,04,00,11.90
2018,08,20,04,01,11.90
2018,08,20,04,02,11.90
2018,08,20,04,03,11.90
2018,08,20,04,04,11.80
2018,08,20,04,05,11.80
2018,08,20,04,06,11.80
2018,08,20,04,07,11.80
2018,08,20,04,08,11.80
2018,08,20,04,09,11.80
2018,08,20,04,10,11.80
2018,08,20,04,11,11.80
2018,08,20,04,12,11.80
2018,08,20,04,13,11.70
2018,08,20,04,14,11.70
2018,08,20,04,15,11.70
2018,08,20,04,16,11.70
2018,08,20,04,17,11.70
2018,08,20,04,18,11.70
2018,08,20,04,19,11.70
2018,08,20,04,20,11.70
2018,08,20,04,21,11.70
2018,08,20,04,22,11.70
2018,08,20,04,23,11.70
2018,08,20,04,24,11.60
2018,08,20,04,25,11.60
2018,08,20,04,26,11.60
2018,08,20,04,27,11.60
2018,08,20,04,28,11.60
2018,08,20,04,29,11.60
2018,08,20,04,30,11.60
2018,08,20,04,31,11.60
2018,08,20,04,32,11.60
2018,08,20,04,33,11.60
2018,08,20,04,34,11.60
2018,08,20,04,35,11.60
2018,08,20,04,36,11.60
2018,08,20,04,37,11.60
2018,08,20,04,38,11.60
2018,08,20,04,39,11.60
2018,08,20,04,40,11.60
2018,08,20,04,41,11.50
2018,08,20,04,42,11.50
2018,08,20,04,43,11.50
2018,08,20,04,44,11.50
2018,08,20,04,45,11.50
2018,08,20,04,46,11.50
2018,08,20,04,47,11.50
2018,08,20,04,48,11.50
2018,08,20,04,49,11.50
2018,08,20,04,50,11.50
2018,08,20,04,51,11.40
2018,08,20,04,52,11.40
2018,08,20,04,53,11.40
2018,08,20,04,54,11.40
2018,08,20,04,55,11.40
2018,08,20,04,56,11.50
2018,08,20,04,57,11.40
2018,08,20,04,58,11.40
2018,08,20,04,59,11.50
2018,08,20,05,00,11.50
2018,08,20,05,01,11.50
2018,08,20,05,02,11.50
2018,08,20,05,03,11.50
2018,08,20,05,04,11.50
2018,08,20,05,05,11.50
2018,08,20,05,06,11.50
2018,08,20,05,07,11.40
2018,08,20,05,08,11.50
2018,08,20,05,09,11.40
2018,08,20,05,10,11.40
2018,08,20,05,11,11.40
2018,08,20,05,12,11.40
2018,08,20,05,13,11.40
2018,08,20,05,14,11.40
2018,08,20,05,15,11.40
2018,08,20,05,16,11.40
2018,08,20,05,17,11.40
2018,08,20,05,18,11.40
2018,08,20,05,19,11.40
2018,08,20,05,20,11.30
2018,08,20,05,21,11.30
2018,08,20,05,22,11.30
2018,08,20,05,23,11.30
2018,08,20,05,24,11.30
2018,08,20,05,25,11.30
2018,08,20,05,26,11.30
2018,08,20,05,27,11.30
2018,08,20,05,28,11.30
2018,08,20,05,29,11.30
2018,08,20,05,30,11.30
2018,08,20,05,31,11.30
2018,08,20,05,32,11.30
2018,08,20,05,33,11.30
2018,08,20,05,34,11.30
2018,08,20,05,35,11.30
2018,08,20,05,36,11.30
2018,08,20,05,37,11.30
2018,08,20,05,38,11.30
2018,08,20,05,39,11.30
2018,08,20,05,40,11.30
2018,08,20,05,41,11.30
2018,08,20,05,42,11.30
2018,08,20,05,43,11.30
2018,08,20,05,44,11.30
2018,08,20,05,45,11.30
2018,08,20,05,46,11.20
2018,08,20,05,47,11.20
2018,08,20,05,48,11.20
2018,08,20,05,49,11.20
2018,08,20,05,50,11.20
2018,08,20,05,51,11.20
2018,08,20,05,52,11.20
2018,08,20,05,53,11.20
2018,08,20,05,54,11.20
2018,08,20,05,55,11.20
2018,08,20,05,56,11.20
2018,08,20,05,57,11.20
2018,08,20,05,58,11.20
2018,08,20,05,59,11.20
2018,08,20,06,00,11.20
2018,08,20,06,01,11.10
2018,08,20,06,02,11.10
2018,08,20,06,03,11.10
2018,08,20,06,04,11.10
2018,08,20,06,05,11.10
2018,08,20,06,06,11.10
2018,08,20,06,07,11.10
2018,08,20,06,08,11.10
2018,08,20,06,09,11.10
2018,08,20,06,10,11.10
2018,08,20,06,11,11.10
2018,08,20,06,12,11.10
2018,08,20,06,13,11.10
2018,08,20,06,14,11.10
2018,08,20,06,15,11.10
2018,08,20,06,16,11.10
2018,08,20,06,17,11.10
2018,08,20,06,18,11.10
2018,08,20,06,19,11.10
2018,08,20,06,20,11.00
2018,08,20,06,21,11.00
2018,08,20,06,22,11.00
2018,08,20,06,23,11.00
2018,08,20,06,24,11.00
2018,08,20,06,25,11.00
2018,08,20,06,26,11.00
2018,08,20,06,27,11.00
2018,08,20,06,28,11.00
2018,08,20,06,29,11.00
2018,08,20,06,30,10.90
2018,08,20,06,31,10.90
2018,08,20,06,32,10.90
2018,08,20,06,33,10.90
2018,08,20,06,34,10.90
2018,08,20,06,35,10.90
2018,08,20,06,36,11.00
2018,08,20,06,37,10.90
2018,08,20,06,38,10.90
2018,08,20,06,39,10.90
2018,08,20,06,40,10.90
2018,08,20,06,41,10.90
2018,08,20,06,42,10.90
2018,08,20,06,43,10.90
2018,08,20,06,44,11.00
2018,08,20,06,45,11.00
2018,08,20,06,46,11.00
2018,08,20,06,47,11.00
2018,08,20,06,48,11.00
2018,08,20,06,49,11.00
2018,08,20,06,50,11.00
2018,08,20,06,51,11.00
2018,08,20,06,52,11.00
2018,08,20,06,53,11.00
2018,08,20,06,54,11.00
2018,08,20,06,55,11.00
2018,08,20,06,56,11.00
2018,08,20,06,57,11.00
2018,08,20,06,58,11.00
2018,08,20,06,59,11.00
2018,08,20,07,00,11.00
2018,08,20,07,01,11.00
2018,08,20,07,02,11.00
2018,08,20,07,03,11.00
2018,08,20,07,04,11.00
2018,08,20,07,05,11.00
2018,08,20,07,06,11.00
2018,08,20,07,07,11.00
2018,08,20,07,08,11.00
2018,08,20,07,09,11.00
2018,08,20,07,10,11.00
2018,08,20,07,11,11.00
2018,08,20,07,12,11.00
2018,08,20,07,13,11.10
2018,08,20,07,14,11.10
2018,08,20,07,15,11.10
2018,08,20,07,16,11.10
2018,08,20,07,17,11.10
2018,08,20,07,18,11.10
2018,08,20,07,19,11.10
2018,08,20,07,20,11.10
2018,08,20,07,21,11.20
2018,08,20,07,22,11.20
2018,08,20,07,23,11.20
2018,08,20,07,24,11.20
2018,08,20,07,25,11.20
2018,08,20,07,26,11.30
2018,08,20,07,27,11.30
2018,08,20,07,28,11.30
2018,08,20,07,29,11.30
2018,08,20,07,30,11.40
2018,08,20,07,31,11.40
2018,08,20,07,32,11.40
2018,08,20,07,33,11.40
2018,08,20,07,34,11.50
2018,08,20,07,35,11.50
2018,08,20,07,36,11.60
2018,08,20,07,37,11.60
2018,08,20,07,38,11.60
2018,08,20,07,39,11.60
2018,08,20,07,40,11.70
2018,08,20,07,41,11.70
2018,08,20,07,42,11.70
2018,08,20,07,43,11.70
2018,08,20,07,44,11.70
2018,08,20,07,45,11.70
2018,08,20,07,46,11.80
2018,08,20,07,47,11.80
2018,08,20,07,48,11.80
2018,08,20,07,49,11.90
2018,08,20,07,50,11.90
2018,08,20,07,51,11.90
2018,08,20,07,52,11.90
2018,08,20,07,53,12.00
2018,08,20,07,54,12.00
2018,08,20,07,55,12.10
2018,08,20,07,56,12.10
2018,08,20,07,57,12.10
2018,08,20,07,58,12.20
2018,08,20,07,59,12.20
2018,08,20,08,00,12.20
2018,08,20,08,01,12.30
2018,08,20,08,02,12.30
2018,08,20,08,03,12.30
2018,08,20,08,04,12.40
2018,08,20,08,05,12.40
2018,08,20,08,06,12.50
2018,08,20,08,07,12.50
2018,08,20,08,08,12.60
2018,08,20,08,09,12.60
2018,08,20,08,10,12.70
2018,08,20,08,11,12.70
2018,08,20,08,12,12.80
2018,08,20,08,13,12.80
2018,08,20,08,14,12.80
2018,08,20,08,15,12.90
2018,08,20,08,16,12.90
2018,08,20,08,17,12.90
2018,08,20,08,18,13.00
2018,08,20,08,19,13.00
2018,08,20,08,20,13.10
2018,08,20,08,21,13.10
2018,08,20,08,22,13.20
2018,08,20,08,23,13.20
2018,08,20,08,24,13.20
2018,08,20,08,25,13.30
2018,08,20,08,26,13.30
2018,08,20,08,27,13.40
2018,08,20,08,28,13.50
2018,08,20,08,29,13.50
2018,08,20,08,30,13.60
2018,08,20,08,31,13.60
2018,08,20,08,32,13.70
2018,08,20,08,33,13.70
2018,08,20,08,34,13.80
2018,08,20,08,35,13.90
2018,08,20,08,36,13.90
2018,08,20,08,37,14.00
2018,08,20,08,38,14.10
2018,08,20,08,39,14.20
2018,08,20,08,40,14.30
2018,08,20,08,41,14.30
2018,08,20,08,42,14.40
2018,08,20,08,43,14.40
2018,08,20,08,44,14.50
2018,08,20,08,45,14.60
2018,08,20,08,46,14.60
2018,08,20,08,47,14.70
2018,08,20,08,48,14.80
2018,08,20,08,49,14.80
2018,08,20,08,50,14.90
2018,08,20,08,51,14.90
2018,08,20,08,52,14.90
2018,08,20,08,53,15.00
2018,08,20,08,54,15.10
2018,08,20,08,55,15.10
2018,08,20,08,56,15.20
2018,08,20,08,57,15.20
2018,08,20,08,58,15.30
2018,08,20,08,59,15.40
2018,08,20,09,00,15.40
2018,08,20,09,01,15.50
2018,08,20,09,02,15.50
2018,08,20,09,03,15.60
2018,08,20,09,04,15.60
2018,08,20,09,05,15.70
2018,08,20,09,06,15.80
2018,08,20,09,07,15.80
2018,08,20,09,08,15.90
2018,08,20,09,09,15.90
2018,08,20,09,10,16.00
2018,08,20,09,11,16.10
2018,08,20,09,12,16.10
2018,08,20,09,13,16.20
2018,08,20,09,14,16.30
2018,08,20,09,15,16.30
2018,08,20,09,16,16.40
2018,08,20,09,17,16.40
2018,08,20,09,18,16.50
2018,08,20,09,19,16.60
2018,08,20,09,20,16.60
2018,08,20,09,21,16.70
2018,08,20,09,22,16.70
2018,08,20,09,23,16.80
2018,08,20,09,24,16.90
2018,08,20,09,25,17.00
2018,08,20,09,26,17.00
2018,08,20,09,27,17.10
2018,08,20,09,28,17.20
2018,08,20,09,29,17.30
2018,08,20,09,30,17.30
2018,08,20,09,31,17.40
2018,08,20,09,32,17.40
2018,08,20,09,33,17.50
2018,08,20,09,34,17.60
2018,08,20,09,35,17.60
2018,08,20,09,36,17.70
2018,08,20,09,37,17.70
2018,08,20,09,38,17.80
2018,08,20,09,39,17.80
2018,08,20,09,40,17.90
2018,08,20,09,41,17.90
2018,08,20,09,42,18.00
2018,08,20,09,43,18.00
2018,08,20,09,44,18.10
2018,08,20,09,45,18.10
2018,08,20,09,46,18.20
2018,08,20,09,47,18.20
2018,08,20,09,48,18.20
2018,08,20,09,49,18.30
2018,08,20,09,50,18.30
2018,08,20,09,51,18.40
2018,08,20,09,52,18.40
2018,08,20,09,53,18.50
2018,08,20,09,54,18.60
2018,08,20,09,55,18.60
2018,08,20,09,56,18.70
2018,08,20,09,57,18.80
2018,08,20,09,58,18.80
2018,08,20,09,59,18.90
2018,08,20,10,00,19.00
2018,08,20,10,01,19.10
2018,08,20,10,02,19.10
2018,08,20,10,03,19.20
2018,08,20,10,04,19.30
2018,08,20,10,05,19.30
2018,08,20,10,06,19.30
2018,08,20,10,07,19.40
2018,08,20,10,08,19.40
2018,08,20,10,09,19.40
2018,08,20,10,10,19.50
2018,08,20,10,11,19.50
2018,08,20,10,12,19.50
2018,08,20,10,13,19.60
2018,08,20,10,14,19.60
2018,08,20,10,15,19.70
2018,08,20,10,16,19.70
2018,08,20,10,17,19.70
2018,08,20,10,18,19.80
2018,08,20,10,19,19.80
2018,08,20,10,20,19.80
2018,08,20,10,21,19.90
2018,08,20,10,22,19.90
2018,08,20,10,23,19.90
2018,08,20,10,24,20.00
2018,08,20,10,25,20.10
2018,08,20,10,26,20.10
2018,08,20,10,27,20.20
2018,08,20,10,28,20.20
2018,08,20,10,29,20.30
2018,08,20,10,30,20.30
2018,08,20,10,31,20.40
2018,08,20,10,32,20.40
2018,08,20,10,33,20.50
2018,08,20,10,34,20.60
2018,08,20,10,35,20.60
2018,08,20,10,36,20.70
2018,08,20,10,37,20.70
2018,08,20,10,38,20.80
2018,08,20,10,39,20.80
2018,08,20,10,40,20.90
2018,08,20,10,41,20.90
2018,08,20,10,42,21.00
2018,08,20,10,43,21.00
2018,08,20,10,44,21.10
2018,08,20,10,45,21.10
2018,08,20,10,46,21.10
2018,08,20,10,47,21.20
2018,08,20,10,48,21.20
2018,08,20,10,49,21.20
2018,08,20,10,50,21.30
2018,08,20,10,51,21.30
2018,08,20,10,52,21.30
2018,08,20,10,53,21.30
2018,08,20,10,54,21.30
2018,08,20,10,55,21.30
2018,08,20,10,56,21.30
2018,08,20,10,57,21.30
2018,08,20,10,58,21.30
2018,08,20,10,59,21.30
2018,08,20,11,00,21.40
2018,08,20,11,01,21.40
2018,08,20,11,02,21.40
2018,08,20,11,03,21.40
2018,08,20,11,04,21.50
2018,08,20,11,05,21.50
2018,08,20,11,06,21.50
2018,08,20,11,07,21.60
2018,08,20,11,08,21.60
2018,08,20,11,09,21.60
2018,08,20,11,10,21.60
2018,08,20,11,11,21.60
2018,08,20,11,12,21.60
2018,08,20,11,13,21.60
2018,08,20,11,14,21.60
2018,08,20,11,15,21.60
2018,08,20,11,16,21.60
2018,08,20,11,17,21.60
2018,08,20,11,18,21.60
2018,08,20,11,19,21.60
2018,08,20,11,20,21.60
2018,08,20,11,21,21.70
2018,08,20,11,22,21.70
2018,08,20,11,23,21.70
2018,08,20,11,24,21.70
2018,08,20,11,25,21.70
2018,08,20,11,26,21.80
2018,08,20,11,27,21.80
2018,08,20,11,28,21.80
2018,08,20,11,29,21.90
2018,08,20,11,30,21.90
2018,08,20,11,31,22.00
2018,08,20,11,32,22.10
2018,08,20,11,33,22.10
2018,08,20,11,34,22.20
2018,08,20,11,35,22.20
2018,08,20,11,36,22.30
2018,08,20,11,37,22.40
2018,08,20,11,38,22.40
2018,08,20,11,39,22.50
2018,08,20,11,40,22.50
2018,08,20,11,41,22.60
2018,08,20,11,42,22.60
2018,08,20,11,43,22.70
2018,08,20,11,44,22.70
2018,08,20,11,45,22.70
2018,08,20,11,46,22.70
2018,08,20,11,47,22.70
2018,08,20,11,48,22.70
2018,08,20,11,49,22.70
2018,08,20,11,50,22.70
2018,08,20,11,51,22.70
2018,08,20,11,52,22.70
2018,08,20,11,53,22.70
2018,08,20,11,54,22.80
2018,08,20,11,55,22.80
2018,08,20,11,56,22.80
2018,08,20,11,57,22.90
2018,08,20,11,58,23.00
2018,08,20,11,59,23.00
2018,08,20,12,00,23.10
2018,08,20,12,01,23.20
2018,08,20,12,02,23.30
2018,08,20,12,03,23.40
2018,08,20,12,04,23.50
2018,08,20,12,05,23.50
2018,08,20,12,06,23.60
2018,08,20,12,07,23.70
2018,08,20,12,08,23.80
2018,08,20,12,09,23.80
2018,08,20,12,10,23.80
2018,08,20,12,11,23.90
2018,08,20,12,12,23.90
2018,08,20,12,13,24.00
2018,08,20,12,14,24.10
2018,08,20,12,15,24.10
2018,08,20,12,16,24.20
2018,08,20,12,17,24.20
2018,08,20,12,18,24.30
2018,08,20,12,19,24.30
2018,08,20,12,20,24.40
2018,08,20,12,21,24.50
2018,08,20,12,22,24.50
2018,08,20,12,23,24.60
2018,08,20,12,24,24.70
2018,08,20,12,25,24.80
2018,08,20,12,26,24.80
2018,08,20,12,27,24.90
2018,08,20,12,28,25.00
2018,08,20,12,29,25.10
2018,08,20,12,30,25.20
2018,08,20,12,31,25.20
2018,08,20,12,32,25.30
2018,08,20,12,33,25.30
2018,08,20,12,34,25.30
2018,08,20,12,35,25.40
2018,08,20,12,36,25.50
2018,08,20,12,37,25.50
2018,08,20,12,38,25.60
2018,08,20,12,39,25.60
2018,08,20,12,40,25.60
2018,08,20,12,41,25.70
2018,08,20,12,42,25.70
2018,08,20,12,43,25.80
2018,08,20,12,44,25.80
2018,08,20,12,45,25.90
2018,08,20,12,46,26.00
2018,08,20,12,47,26.10
2018,08,20,12,48,26.10
2018,08,20,12,49,26.20
2018,08,20,12,50,26.30
2018,08,20,12,51,26.30
2018,08,20,12,52,26.30
2018,08,20,12,53,26.40
2018,08,20,12,54,26.40
2018,08,20,12,55,26.40
2018,08,20,12,56,26.40
2018,08,20,12,57,26.40
2018,08,20,12,58,26.40
2018,08,20,12,59,26.40
2018,08,20,13,00,26.40
2018,08,20,13,01,26.50
2018,08,20,13,02,26.50
2018,08,20,13,03,26.60
2018,08,20,13,04,26.60
2018,08,20,13,05,26.60
2018,08,20,13,06,26.60
2018,08,20,13,07,26.60
2018,08,20,13,08,26.70
2018,08,20,13,09,26.70
2018,08,20,13,10,26.70
2018,08,20,13,11,26.70
2018,08,20,13,12,26.80
2018,08,20,13,13,26.80
2018,08,20,13,14,26.80
2018,08,20,13,15,26.80
2018,08,20,13,16,26.80
2018,08,20,13,17,26.70
2018,08,20,13,18,26.70
2018,08,20,13,19,26.70
2018,08,20,13,20,26.70
2018,08,20,13,21,26.80
2018,08,20,13,22,26.80
2018,08,20,13,23,26.70
2018,08,20,13,24,26.70
2018,08,20,13,25,26.70
2018,08,20,13,26,26.70
2018,08,20,13,27,26.70
2018,08,20,13,28,26.80
2018,08,20,13,29,26.80
2018,08,20,13,30,26.80
2018,08,20,13,31,26.80
2018,08,20,13,32,26.80
2018,08,20,13,33,26.70
2018,08,20,13,34,26.80
2018,08,20,13,35,26.80
2018,08,20,13,36,26.80
2018,08,20,13,37,26.80
2018,08,20,13,38,26.80
2018,08,20,13,39,26.80
2018,08,20,13,40,26.80
2018,08,20,13,41,26.80
2018,08,20,13,42,26.80
2018,08,20,13,43,26.70
2018,08,20,13,44,26.70
2018,08,20,13,45,26.80
2018,08,20,13,46,26.80
2018,08,20,13,47,26.80
2018,08,20,13,48,26.80
2018,08,20,13,49,26.80
2018,08,20,13,50,26.80
2018,08,20,13,51,26.70
2018,08,20,13,52,26.70
2018,08,20,13,53,26.70
2018,08,20,13,54,26.70
2018,08,20,13,55,26.70
2018,08,20,13,56,26.70
2018,08,20,13,57,26.70
2018,08,20,13,58,26.70
2018,08,20,13,59,26.80
2018,08,20,14,00,26.80
2018,08,20,14,01,26.90
2018,08,20,14,02,27.00
2018,08,20,14,03,27.00
2018,08,20,14,04,27.10
2018,08,20,14,05,27.10
2018,08,20,14,06,27.00
2018,08,20,14,07,27.00
2018,08,20,14,08,27.00
2018,08,20,14,09,26.90
2018,08,20,14,10,26.90
2018,08,20,14,11,26.90
2018,08,20,14,12,27.00
2018,08,20,14,13,27.00
2018,08,20,14,14,27.10
2018,08,20,14,15,27.10
2018,08,20,14,16,27.10
2018,08,20,14,17,27.20
2018,08,20,14,18,27.20
2018,08,20,14,19,27.20
2018,08,20,14,20,27.20
2018,08,20,14,21,27.20
2018,08,20,14,22,27.30
2018,08,20,14,23,27.30
2018,08,20,14,24,27.40
2018,08,20,14,25,27.40
2018,08,20,14,26,27.50
2018,08,20,14,27,27.50
2018,08,20,14,28,27.50
2018,08,20,14,29,27.60
2018,08,20,14,30,27.50
2018,08,20,14,31,27.50
2018,08,20,14,32,27.50
2018,08,20,14,33,27.50
2018,08,20,14,34,27.60
2018,08,20,14,35,27.60
2018,08,20,14,36,27.60
2018,08,20,14,37,27.60
2018,08,20,14,38,27.60
2018,08,20,14,39,27.60
2018,08,20,14,40,27.60
2018,08,20,14,41,27.60
2018,08,20,14,42,27.60
2018,08,20,14,43,27.60
2018,08,20,14,44,27.60
2018,08,20,14,45,27.60
2018,08,20,14,46,27.60
2018,08,20,14,47,27.50
2018,08,20,14,48,27.40
2018,08,20,14,49,27.50
2018,08,20,14,50,27.40
2018,08,20,14,51,27.40
2018,08,20,14,52,27.40
2018,08,20,14,53,27.50
2018,08,20,14,54,27.50
2018,08,20,14,55,27.60
2018,08,20,14,56,27.70
2018,08,20,14,57,27.70
2018,08,20,14,58,27.80
2018,08,20,14,59,27.80
2018,08,20,15,00,27.90
2018,08,20,15,01,27.90
2018,08,20,15,02,28.00
2018,08,20,15,03,28.00
2018,08,20,15,04,28.10
2018,08,20,15,05,28.10
2018,08,20,15,06,28.10
2018,08,20,15,07,28.10
2018,08,20,15,08,28.10
2018,08,20,15,09,28.10
2018,08,20,15,10,28.10
2018,08,20,15,11,28.20
2018,08,20,15,12,28.20
2018,08,20,15,13,28.30
2018,08,20,15,14,28.40
2018,08,20,15,15,28.40
2018,08,20,15,16,28.40
2018,08,20,15,17,28.40
2018,08,20,15,18,28.40
2018,08,20,15,19,28.40
2018,08,20,15,20,28.40
2018,08,20,15,21,28.40
2018,08,20,15,22,28.40
2018,08,20,15,23,28.40
2018,08,20,15,24,28.50
2018,08,20,15,25,28.50
2018,08,20,15,26,28.60
2018,08,20,15,27,28.60
2018,08,20,15,28,28.70
2018,08,20,15,29,28.70
2018,08,20,15,30,28.70
2018,08,20,15,31,28.70
2018,08,20,15,32,28.70
2018,08,20,15,33,28.70
2018,08,20,15,34,28.60
2018,08,20,15,35,28.60
2018,08,20,15,36,28.70
2018,08,20,15,37,28.70
2018,08,20,15,38,28.70
2018,08,20,15,39,28.70
2018,08,20,15,40,28.60
2018,08,20,15,41,28.60
2018,08,20,15,42,28.60
2018,08,20,15,43,28.60
2018,08,20,15,44,28.60
2018,08,20,15,45,28.60
2018,08,20,15,46,28.60
2018,08,20,15,47,28.70
2018,08,20,15,48,28.70
2018,08,20,15,49,28.80
2018,08,20,15,50,28.80
2018,08,20,15,51,28.90
2018,08,20,15,52,29.00
2018,08,20,15,53,29.10
2018,08,20,15,54,29.20
2018,08,20,15,55,29.30
2018,08,20,15,56,29.30
2018,08,20,15,57,29.40
2018,08,20,15,58,29.50
2018,08,20,15,59,29.50
2018,08,20,16,00,29.60
2018,08,20,16,01,29.70
2018,08,20,16,02,29.70
2018,08,20,16,03,29.80
2018,08,20,16,04,29.80
2018,08,20,16,05,29.90
2018,08,20,16,06,30.00
2018,08,20,16,07,30.00
2018,08,20,16,08,30.00
2018,08,20,16,09,30.00
2018,08,20,16,10,30.00
2018,08,20,16,11,30.00
2018,08,20,16,12,30.10
2018,08,20,16,13,30.10
2018,08,20,16,14,30.10
2018,08,20,16,15,30.10
2018,08,20,16,16,30.10
2018,08,20,16,17,30.20
2018,08,20,16,18,30.20
2018,08,20,16,19,30.20
2018,08,20,16,20,30.20
2018,08,20,16,21,30.20
2018,08,20,16,22,30.20
2018,08,20,16,23,30.20
2018,08,20,16,24,30.10
2018,08,20,16,25,30.10
2018,08,20,16,26,30.10
2018,08,20,16,27,30.10
2018,08,20,16,28,30.10
2018,08,20,16,29,30.00
2018,08,20,16,30,30.00
2018,08,20,16,31,30.00
2018,08,20,16,32,30.10
2018,08,20,16,33,30.10
2018,08,20,16,34,30.10
2018,08,20,16,35,30.10
2018,08,20,16,36,30.10
2018,08,20,16,37,30.20
2018,08,20,16,38,30.20
2018,08,20,16,39,30.10
2018,08,20,16,40,30.10
2018,08,20,16,41,30.10
2018,08,20,16,42,30.10
2018,08,20,16,43,30.10
2018,08,20,16,44,30.20
2018,08,20,16,45,30.20
2018,08,20,16,46,30.30
2018,08,20,16,47,30.30
2018,08,20,16,48,30.40
2018,08,20,16,49,30.40
2018,08,20,16,50,30.40
2018,08,20,16,51,30.40
2018,08,20,16,52,30.40
2018,08,20,16,53,30.40
2018,08,20,16,54,30.30
2018,08,20,16,55,30.30
2018,08,20,16,56,30.30
2018,08,20,16,57,30.20
2018,08,20,16,58,30.20
2018,08,20,16,59,30.20
2018,08,20,17,00,30.20
2018,08,20,17,01,30.20
2018,08,20,17,02,30.20
2018,08,20,17,03,30.20
2018,08,20,17,04,30.20
2018,08,20,17,05,30.20
2018,08,20,17,06,30.20
2018,08,20,17,07,30.20
2018,08,20,17,08,30.20
2018,08,20,17,09,30.20
2018,08,20,17,10,30.20
2018,08,20,17,11,30.30
2018,08,20,17,12,30.30
2018,08,20,17,13,30.30
2018,08,20,17,14,30.30
2018,08,20,17,15,30.30
2018,08,20,17,16,30.30
2018,08,20,17,17,30.40
2018,08,20,17,18,30.40
2018,08,20,17,19,30.40